Location: ??????
(41.3164°N, 22.6615°E)
Time: 01:59:56
(UTC+00:00)

Cosmos 371 Rocket - Pass Details

Date: 16 October 2021
Orbit: 684 x 699 km, 74.0° (Epoch: 02 December)

Event Time Altitude Azimuth Distance (km) Brightness Sun altitude
Rises 17:43:07 0° 192° (SSW) 3,046 6.7 -22.6°
Reaches altitude 10° 17:45:25 10° 191° (S) 2,137 5.8 -23.0°
Enters shadow 17:50:02 71° 128° (SE) 734 3.1 -23.8°
